#timestamp,LO_Frequency,Hit,StdDev 
1557273615.5,286047001.5,N
1557273635.4,286047002.4,N
1557273655.2,286047004.3,N
1557273675.1,286047004.1,N
1557273676.0,286047004.1,N
1557273695.8,286047003.0,N
1557273715.6,286047005.3,N
1557273735.5,286047005.2,N
1557273755.3,286047004.9,N
1557273775.2,286047002.9,N
1557273795.9,286047002.2,N
1557273815.7,286047002.0,N
1557273835.6,286047002.8,N
1557273855.4,286047001.2,N
1557273875.2,286047001.2,N
1557273895.1,286046997.2,N
1557273896.0,286046997.2,N
1557273915.8,286046998.1,N
1557273935.7,286047001.1,N
1557273955.5,286047001.1,N
1557273975.3,286046999.9,N
1557273995.2,286047000.6,N
1557274015.0,286047002.8,N
1557274015.9,286047002.8,N
1557274035.8,286047001.8,N
1557274055.6,286047000.2,N
1557274075.4,286046998.8,N
1557274095.3,286046997.0,N
1557274115.1,286047001.2,N
1557274135.8,286046998.5,N
1557274155.7,286046998.5,N
1557274175.5,286046998.7,N
1557274195.3,286046996.9,N
1557274215.2,286046998.9,N
1557274235.0,286047001.2,N
1557274235.9,286047001.2,N
1557274255.8,286046999.7,N
1557274275.6,286047001.7,N
1557274295.4,286047003.7,N
1557274315.3,286047006.3,Y
1557274335.1,286047007.3,P
1557274355.9,286047007.2,N
1557274375.7,286047003.2,N
1557274395.5,286047001.4,N
1557274415.6,286047004.2,N
1557274435.4,286047002.1,N
1557274455.3,286047000.4,N
1557274475.1,286047000.8,N
1557274476.0,286047000.8,N
1557274495.8,286047001.1,N
1557274515.7,286047000.3,N
1557274535.5,286047001.9,N
1557274555.3,286047003.8,N
1557274575.2,286047004.2,N
1557274595.0,286047004.0,N
1557274595.9,286047004.0,N
1557274615.8,286047001.3,N
1557274635.6,286047000.0,N
1557274655.4,286047001.2,N
1557274675.3,286046999.9,N
1557274695.1,286047002.6,N
1557274715.8,286047002.5,N
1557274735.7,286047001.9,N
1557274755.5,286047000.5,N
1557274775.4,286047001.1,N
1557274795.2,286047001.2,N
1557274815.0,286046998.1,N
1557274815.9,286046998.1,N
1557274835.8,286046997.0,N
1557274855.6,286046998.0,N
1557274875.4,286046997.9,N
1557274895.3,286046994.9,N
1557274915.1,286046993.6,N
1557274935.9,286046994.1,N
1557274955.7,286046994.5,N
1557274975.5,286046995.9,N
1557274995.4,286046995.8,N
1557275015.2,286046995.4,N
1557275035.0,286046997.5,N
1557275035.9,286046997.5,N
1557275055.8,286046998.8,N
1557275075.6,286046998.8,N
1557275095.5,286046998.8,N
1557275115.3,286046996.8,N
1557275135.1,286046995.0,N
1557275155.9,286046999.2,N
1557275175.7,286046997.5,N
1557275195.5,286046995.0,N
1557275215.4,286046997.5,N
1557275235.2,286046997.4,N
1557275255.1,286046999.5,N
1557275256.0,286046999.5,N
1557275275.8,286046998.3,N
1557275295.6,286046999.2,N
1557275315.5,286046999.4,N
1557275335.3,286046997.3,N
1557275355.1,286046995.6,N
1557275375.4,286046996.0,N
1557275395.2,286046991.8,Y
1557275415.1,286046995.5,P
1557275416.0,286046995.5,P
1557275435.8,286046996.0,P
1557275455.7,286046997.9,Y
1557275475.5,286047002.5,P
1557275495.3,286047002.7,N
1557275515.2,286047001.6,N
1557275535.0,286047004.0,N
1557275535.9,286047004.0,N
1557275555.7,286047003.5,N
1557275575.6,286047001.5,N
1557275595.4,286047001.9,N
1557275615.3,286047001.7,N
1557275635.1,286047001.5,N
1557275636.0,286047001.5,N
1557275655.8,286047001.8,N
1557275675.7,286047003.7,N
1557275695.5,286047005.3,N
1557275715.3,286047003.7,N
1557275735.2,286047002.1,N
1557275755.0,286046999.7,N
1557275755.9,286046999.7,N
1557275775.8,286047001.9,N
1557275795.6,286047003.2,N
1557275815.4,286047007.5,Y
1557275835.3,286047005.6,P
1557275855.1,286047002.6,N
1557275875.8,286047000.1,N
1557275895.7,286046998.8,N
1557275915.5,286047000.7,N
1557275935.4,286047000.8,N
1557275955.2,286047000.5,N
1557275975.0,286047001.1,N
1557275975.9,286047001.1,N
1557275995.8,286046996.5,N
1557276015.6,286046997.4,N
1557276035.4,286046997.7,N
1557276055.3,286046997.7,N
1557276075.1,286046997.9,N
1557276095.9,286046997.0,N
1557276115.7,286046999.1,N
1557276165.6,286047002.7,E
1557276175.5,286046998.1,N
1557276195.3,286046996.5,P
1557276215.2,286046996.6,P
1557276235.9,286046996.6,Y
1557276255.7,286046999.0,P
1557276275.6,286046998.5,N
1557276295.4,286046998.7,N
1557276315.2,286046998.5,N
1557276335.1,286047000.4,N
1557276336.0,286047000.4,N
1557276355.8,286046998.3,N
1557276375.7,286047000.1,N
1557276395.5,286047000.0,N
1557276415.3,286047000.0,N
1557276435.2,286046999.8,N
1557276455.0,286047001.6,N
1557276455.9,286047001.6,N
1557276475.8,286047000.0,N
1557276495.6,286046997.0,N
1557276515.4,286046999.1,N
1557276535.3,286046998.3,N
1557276555.1,286046999.5,N
1557276556.0,286046999.5,N
1557276575.8,286046998.7,N
1557276595.7,286046998.7,N
1557276615.5,286047001.1,N
1557276635.4,286047001.2,N
1557276655.2,286047002.2,N
1557276675.0,286047000.4,N
1557276675.9,286047000.4,N
1557276695.8,286046999.8,N
1557276715.6,286047002.4,N
1557276735.4,286047001.0,N
1557276755.3,286047000.2,N
1557276775.1,286047000.1,N
1557276795.9,286047004.4,Y
1557276815.7,286047004.2,P
1557276835.5,286047006.3,N
1557276855.4,286047006.5,N
1557276875.2,286047007.0,N
1557276895.0,286047006.9,N
1557276896.0,286047006.9,N
1557276915.8,286047005.5,N
1557276935.6,286047003.5,N
1557276955.5,286047002.1,N
1557276975.3,286047003.6,N
1557276995.1,286047002.1,N
1557277015.9,286047005.8,N
1557277035.7,286047007.6,Y
1557277055.6,286047001.4,P
1557277075.4,286047001.7,N
1557277095.2,286047002.3,N
1557277115.1,286046999.2,N
1557277116.0,286046999.2,N
1557277135.8,286046999.2,N
1557277155.6,286046997.0,N
1557277175.5,286046997.8,N
1557277195.3,286046997.6,N
